Hourly Data Report for August 12, 2021

CAMPBELL RIVER A
BRITISH COLUMBIA
Current Station Operator: NAVCAN

49°57'07.000" N
125°16'23.000" W
108.80 m
1021270
YBL

Download Data

Hourly Data (August 2021)
Hourly Data Report for August 12, 2021
TIME
LST
Temp Definition
°C
Dew Point Definition
°C
Rel Hum Definition
%
Precip. Amount Definition
mm

Wind Dir Definition
10's deg

Wind Spd Definition
km/h
Visibility Definition
km
Stn Press Definition
kPa
Hmdx Definition


Wind Chill Definition


Weather Definition


00:00 18.3 11.8 65 LegendMM 28 15 LegendMM 100.44     LegendNANA
01:00 17.8 11.7 67 LegendMM 30 23 LegendMM 100.44     LegendNANA
02:00 17.9 11.7 66 LegendMM 30 23 LegendMM 100.44     LegendNANA
03:00 17.8 11.6 67 LegendMM 31 22 LegendMM 100.46     LegendNANA
04:00 18.0 11.7 66 LegendMM 31 27 LegendMM 100.48     LegendNANA
05:00 17.8 11.7 67 LegendMM 31 17 LegendMM 100.49     LegendNANA
06:00 19.2 11.9 62 LegendMM 31 21 LegendMM 100.51     LegendNANA
07:00 21.0 12.5 58 LegendMM 32 16 LegendMM 100.55     LegendNANA
08:00 25.0 12.6 46 LegendMM 31 14 LegendMM 100.57 28   LegendNANA
09:00 29.0 11.6 33 LegendMM 30 14 LegendMM 100.56 31   LegendNANA
10:00 31.5 9.5 25 LegendMM 31 15 LegendMM 100.56 33   LegendNANA
11:00 32.8 10.7 25 LegendMM 31 8 LegendMM 100.54 34   LegendNANA
12:00 34.1 11.9 25 LegendMM 8 10 LegendMM 100.48 36   LegendNANA
13:00 35.1 11.1 23 LegendMM 8 12 LegendMM 100.43 37   LegendNANA
14:00 35.9 10.3 21 LegendMM 7 10 LegendMM 100.37 37   LegendNANA
15:00 36.8 7.7 16 LegendMM 6 10 LegendMM 100.34 37   LegendNANA
16:00 36.8 7.1 16 LegendMM 10 9 LegendMM 100.29 37   LegendNANA
17:00 36.9 5.0 14 LegendMM 3 7 LegendMM 100.24 36   LegendNANA
18:00 36.2 7.1 16 LegendMM 5 5 LegendMM 100.20 36   LegendNANA
19:00 27.9 12.2 37 LegendMM 32 3 LegendMM 100.17 30   LegendNANA
20:00 23.6 14.8 58 LegendMM 30 3 LegendMM 100.20 27   LegendNANA
21:00 20.2 14.6 70 LegendMM 30 7 LegendMM 100.23     LegendNANA
22:00 17.8 13.9 78 LegendMM 25 3 LegendMM 100.26     LegendNANA
23:00 17.4 13.8 79 LegendMM 28 5 LegendMM 100.27     LegendNANA

Notes on Data Quality.

Legend

  • E = Estimated
  • M = Missing
  • NA = Not Available*
  • [empty] = Indicates an unobserved value
Date modified: